Location: Newark
(49.3000°N, 9.4667°E)
Time: 20:17:14
(UTC+00:00)

Altair - All Passes

Search period start: 19 May 2019 00:00
Search period end: 29 May 2019 00:00
Orbit: 1501 x 1683 km, 47.2° (Epoch: 19 May)

Date Brightness Start Highest point End Pass type
(mag) Time Alt. Az. Time Alt. Az. Time Alt. Az.
19 May - 03:00:13 10° S 03:08:09 27° SE 03:16:02 10° E daylight
19 May - 05:01:41 10° SW 05:11:35 60° SSE 05:21:22 10° ENE daylight
19 May - 07:05:58 10° W 07:16:08 81° S 07:26:04 10° E daylight
19 May - 09:10:50 10° W 09:20:45 65° SSW 09:30:18 10° SE daylight
19 May - 11:16:05 10° W 11:24:16 31° SW 11:32:13 10° SSE daylight
20 May - 02:35:29 10° S 02:43:05 25° SE 02:50:41 10° E visible
20 May - 04:36:35 10° SW 04:46:26 58° SSE 04:56:11 10° ENE daylight
20 May - 06:40:45 10° W 06:50:56 80° S 07:00:53 10° E daylight
20 May - 08:45:36 10° W 08:55:35 67° SSW 09:05:13 10° ESE daylight
20 May - 10:50:46 10° WNW 10:59:13 33° SW 11:07:25 10° SSE daylight
21 May - 02:10:47 10° S 02:18:03 23° SE 02:25:18 10° E visible
21 May - 04:11:30 10° SW 04:21:17 55° SSE 04:31:00 10° ENE daylight
21 May - 06:15:32 10° W 06:25:44 80° S 06:35:42 10° E daylight
21 May - 08:20:23 10° W 08:30:25 69° SSW 08:40:07 10° ESE daylight
21 May - 10:25:29 10° WNW 10:34:10 35° SW 10:42:34 10° SSE daylight
22 May - 01:46:09 10° S 01:53:01 21° SE 01:59:52 10° E visible
22 May - 03:46:27 10° SW 03:56:08 53° SSE 04:05:48 10° ENE daylight
22 May - 05:50:20 10° WSW 06:00:31 79° S 06:10:32 10° E daylight
22 May - 07:55:10 10° W 08:05:14 71° SSW 08:15:01 10° ESE daylight
22 May - 10:00:12 10° WNW 10:09:05 38° SW 10:17:42 10° SSE daylight
22 May - 12:10:02 10° WSW 12:11:27 10° WSW 12:12:52 10° SW daylight
23 May - 01:21:36 10° SSE 01:27:59 19° SE 01:34:23 10° E visible
23 May - 03:21:24 10° SW 03:31:00 50° SSE 03:40:35 10° ENE daylight
23 May - 05:25:08 10° WSW 05:35:19 78° S 05:45:21 10° E daylight
23 May - 07:29:56 10° W 07:40:03 73° SSW 07:49:53 10° ESE daylight
23 May - 09:34:56 10° WNW 09:44:00 40° SW 09:52:47 10° SSE daylight
23 May - 11:43:13 10° WSW 11:46:29 12° WSW 11:49:43 10° SW daylight
24 May - 00:57:06 10° SSE 01:02:58 17° SE 01:08:50 10° E visible
24 May - 02:56:23 10° SW 03:05:52 48° SE 03:15:22 10° ENE daylight
24 May - 04:59:56 10° WSW 05:10:07 77° S 05:20:09 10° E daylight
24 May - 07:04:44 10° W 07:14:52 75° SSW 07:24:44 10° ESE daylight
24 May - 09:09:41 10° WNW 09:18:55 43° SW 09:27:53 10° SSE daylight
24 May - 11:17:10 10° W 11:21:31 14° WSW 11:25:48 10° SSW daylight
25 May - 00:32:45 10° SSE 00:37:58 16° SE 00:43:11 10° E visible
25 May - 02:31:23 10° SSW 02:40:45 45° SE 02:50:09 10° ENE visible
25 May - 04:34:45 10° WSW 04:44:54 76° SSE 04:54:58 10° E daylight
25 May - 06:39:31 10° W 06:49:40 76° SSW 06:59:36 10° ESE daylight
25 May - 08:44:26 10° WNW 08:53:49 46° SW 09:02:55 10° SSE daylight
25 May - 10:51:23 10° W 10:56:32 16° SW 11:01:36 10° SSW daylight
26 May - 00:08:32 10° SSE 00:12:58 14° ESE 00:17:24 10° E visible
26 May - 02:06:24 10° SSW 02:15:37 43° SE 02:24:55 10° ENE visible
26 May - 04:09:35 10° WSW 04:19:42 74° SSE 04:29:47 10° E daylight
26 May - 06:14:18 10° W 06:24:29 77° S 06:34:26 10° ESE daylight
26 May - 08:19:11 10° WNW 08:28:42 48° SSW 08:37:57 10° SE daylight
26 May - 10:25:44 10° W 10:31:32 17° SW 10:37:15 10° SSW daylight
26 May - 23:44:36 10° SE 23:47:59 12° ESE 23:51:22 10° ESE visible
27 May - 01:41:27 10° SSW 01:50:31 40° SE 01:59:40 10° ENE visible
27 May - 03:44:25 10° WSW 03:54:31 73° SSE 04:04:35 10° E daylight
27 May - 05:49:05 10° W 05:59:16 79° S 06:09:17 10° ESE daylight
27 May - 07:53:57 10° WNW 08:03:35 51° SSW 08:12:57 10° SE daylight
27 May - 10:00:10 10° W 10:06:32 19° SW 10:12:47 10° SSW daylight
27 May - 23:21:22 10° SE 23:23:00 10° ESE 23:24:38 10° ESE visible
28 May - 01:16:31 10° SSW 01:25:25 38° SE 01:34:25 10° ENE visible
28 May - 03:19:16 10° WSW 03:29:19 71° SSE 03:39:23 10° E daylight
28 May - 05:23:52 10° W 05:34:04 79° S 05:44:06 10° ESE daylight
28 May - 07:28:43 10° WNW 07:38:27 53° SSW 07:47:56 10° SE daylight
28 May - 09:34:41 10° W 09:41:31 21° SW 09:48:15 10° S daylight
